[[{"header":{"parameterUnit":"m.s-1","parameterCategory":2,"la1":30.2991,"la2":30.254,"lo1":-89.0895,"lo2":-89.0444,"dy":0.0017,"dx":0.0017,"nx":28,"ny":28,"refTime":"2023-08-18T09:00:00:Z","depth":"0","parameterNumber":2,"parameterNumberName":"U-component_of_CURRENTS"},"data":[0,0,0,0,0,0,0,0,0,0,0,0,0,0,0,0,0,0,0,0,0,0,0,0,0,0,0,0,0,0,0,0,0,0,0,0,0,0,0,0,0,0,0,0,0,0,0,0,0,0,0,0,0,0,0,0,0,0,0.2011,0.2012,0,0.2146,0.2148,0.215,0.2125,0.2123,0.212,0.2117,0.2313,0.232,0.2328,0,0,0,0,0,0,0,0,0,0,0,0,0,0.1944,0.1944,0.201,0.2012,0.2013,0.2146,0.2148,0.215,0.2126,0.2123,0.2119,0.2116,0.231,0.232,0.2329,0,0,0,0,0,0,0,0,0,0,0,0,0,0.2018,0.1944,0.201,0.2015,0.2016,0.2145,0.2148,0.2151,0.2127,0.2122,0.2118,0.2115,0.2307,0.2319,0.233,0.2482,0,0,0.2365,0.237,0,0,0,0,0,0,0,0,0.2013,0.2021,0.2013,0.2015,0.2017,0.2112,0.2196,0.2263,0.2128,0.2088,0.2117,0.2113,0.2253,0.2268,0.2306,0.2491,0.2499,0.2366,0.2373,0.2378,0.2382,0,0,0,0,0,0,0,0.2008,0.2016,0.2067,0.2015,0.2017,0.2083,0.2088,0.221,0.2195,0.2091,0.2089,0.2101,0.2254,0.2295,0.2311,0.2502,0.2366,0.2376,0.2383,0.2388,0.2855,0.286,0,0,0,0,0,0,0.1979,0.201,0.2063,0.2071,0.2002,0.2087,0.2092,0.2088,0.2192,0.2202,0.2104,0.2099,0.2277,0.2297,0.2318,0.2503,0.2378,0.2389,0.2396,0.285,0.2856,0.2862,0,0,0,0,0,0,0.1977,0.1982,0.2057,0.2042,0.2056,0.209,0.2088,0.2093,0.2136,0.22,0.2211,0.2139,0.2275,0.2301,0.2455,0.251,0.2394,0.2405,0.2843,0.2852,0.2859,0.2875,0,0,0,0,0,0,0.1974,0.198,0.1994,0.204,0.2055,0.2167,0.2091,0.2098,0.2147,0.2142,0.2237,0.2249,0.2274,0.2438,0.2466,0.2524,0.2414,0.2836,0.2847,0.2857,0.2868,0.2883,0.2896,0,0,0,0,0,0.1971,0.2008,0.1993,0.2001,0.2063,0.217,0.2189,0.22,0.2153,0.2215,0.2267,0.2246,0.2522,0.2453,0.2485,0.2546,0.2831,0.2844,0.2856,0.2862,0.288,0.2896,0,0,0,0,0,0,0.2001,0.201,0.1994,0.2034,0.2107,0.2165,0.2219,0.2222,0.2312,0.2299,0.2333,0.2356,0.2512,0.2555,0.2476,0.2719,0.267,0.2689,0.2663,0.2682,0.2695,0.2627,0.2423,0,0,0,0,0,0.201,0.204,0.207,0.2123,0.214,0.2183,0.2229,0.2242,0.2313,0.2344,0.241,0.2492,0.2597,0.2651,0.2764,0.291,0.2887,0.2972,0.2986,0.2997,0.2971,0.3052,0.3068,0.2903,0.2903,0.2902,0,0,0.2043,0.2055,0.2074,0.2133,0.2173,0.2251,0.2202,0.2286,0.2353,0.2362,0.2491,0.2563,0.2656,0.2805,0.2876,0.2836,0.3025,0.3013,0.302,0.2988,0.3066,0.3081,0.3094,0.2911,0.291,0.2908,0,0,0.2137,0.2123,0.2175,0.2235,0.2301,0.233,0.2354,0.2428,0.2452,0.2598,0.2608,0.2697,0.2887,0.293,0.2979,0.3153,0.311,0.3213,0.3211,0.3292,0.3303,0.3313,0.3237,0.324,0.3202,0.3202,0.3202,0,0.2174,0.2227,0.2226,0.2301,0.2345,0.2362,0.244,0.2501,0.2626,0.2641,0.2648,0.2861,0.2932,0.3053,0.31,0.3173,0.3171,0.3121,0.33,0.331,0.332,0.324,0.3243,0.3205,0.3204,0.3204,0.3204,0,0.2307,0.2353,0.2398,0.2469,0.2531,0.2617,0.266,0.2725,0.2742,0.2777,0.2903,0.3003,0.3093,0.3156,0.3177,0.3294,0.3249,0.3311,0.3226,0.3335,0.3246,0.3249,0.3208,0.3207,0.3206,0.3206,0,0,0.236,0.2462,0.2477,0.251,0.2612,0.2666,0.2762,0.2828,0.2839,0.2964,0.3001,0.3166,0.3155,0.3212,0.3259,0.3318,0.336,0.3338,0.3341,0.3203,0.3436,0.3141,0.3113,0.3472,0.3474,0.3477,0.3316,0,0.2458,0.2597,0.2621,0.2748,0.2806,0.2822,0.2894,0.295,0.2985,0.304,0.309,0.3171,0.3199,0.3226,0.3302,0.3373,0.3383,0.339,0.3401,0.3397,0.3077,0.3114,0.2944,0.2768,0.3318,0.3319,0.3319,0,0.2567,0.2633,0.2761,0.2817,0.2833,0.2902,0.2934,0.3006,0.3056,0.3072,0.3129,0.3167,0.3245,0.3276,0.3374,0.3387,0.3397,0.3429,0.3426,0.3141,0.311,0.2773,0.2752,0.2709,0.3322,0.3322,0.3322,0,0.2592,0.2714,0.2799,0.2842,0.2925,0.2936,0.2963,0.3003,0.3018,0.3073,0.3074,0.318,0.3206,0.3306,0.3302,0.3377,0.3363,0.3482,0.3195,0.317,0.3013,0.2967,0.2899,0.3533,0.3534,0.3534,0.3535,0,0.268,0.274,0.2803,0.2855,0.2894,0.2935,0.2956,0.2982,0.3008,0.3013,0.3075,0.3091,0.3233,0.3225,0.3278,0.3161,0.3329,0.3149,0.3125,0.3005,0.2964,0.2908,0.2906,0.3528,0.3529,0.3531,0.3532,0,0.2716,0.2774,0.2851,0.291,0.2916,0.2935,0.2939,0.2948,0.2957,0.2969,0.2978,0.3024,0.298,0.2991,0.3074,0.3048,0.2898,0.2932,0.267,0.2616,0.2324,0.2328,0.2084,0.2053,0.2628,0.262,0.2613,0,0.2753,0.2808,0.2873,0.2885,0.2906,0.2923,0.2926,0.2934,0.2929,0.2918,0.292,0.2847,0.2768,0.2644,0.2576,0.2463,0.2533,0.2238,0.2366,0.2217,0.2212,0.2202,0.2202,0.2153,0.2143,0.2135,0.2129,0,0.2804,0.2824,0.2875,0.2912,0.2915,0.2911,0.2904,0.2883,0.2874,0.2828,0.2739,0.2656,0.2447,0.2228,0.1998,0.1969,0.209,0.2059,0.2067,0.1914,0.175,0.1737,0.2253,0.2056,0.2063,0.2069,0.2073,0.2075,0.2812,0.2855,0.2914,0.2913,0.2918,0.2879,0.2798,0.277,0.2694,0.2516,0.2551,0.2279,0.2022,0.167,0.1596,0.134,0.1511,0.1357,0.1386,0.14,0.1324,0.1543,0.1229,0.1232,0.1234,0.1236,0.1237,0,0.2817,0.2867,0.2902,0.2883,0.2822,0.2839,0.2756,0.2607,0.243,0.2276,0.2095,0.1677,0.1376,0.1172,0.0866,0.0749,0.0839,0.0728,0.0806,0.0866,0.1202,0.1139,0.0595,0.0595,0.0595,0.0595,0.0595,0.0595,0.2832,0.2869,0.2876,0.2769,0.2723,0.2551,0.2448,0.2247,0.2068,0.1658,0.1329,0.1155,0.0927,0.0599,0.0374,0.0364,0.0443,0.0269,0.042,0.0778,0.0846,0.0912,0.0858,0.0264,0.0264,0.0087,0.0085,0.0084]},{"header":{"parameterUnit":"m.s-1","parameterCategory":2,"la1":30.2991,"la2":30.254,"lo1":-89.0895,"lo2":-89.0444,"dy":0.0017,"dx":0.0017,"nx":28,"ny":28,"refTime":"2023-08-18T09:00:00:Z","depth":"0","parameterNumber":3,"parameterNumberName":"V-component_of_CURRENTS"},"data":[0,0,0,0,0,0,0,0,0,0,0,0,0,0,0,0,0,0,0,0,0,0,0,0,0,0,0,0,0,0,0,0,0,0,0,0,0,0,0,0,0,0,0,0,0,0,0,0,0,0,0,0,0,0,0,0,0,0,0.0556,0.0556,0,0.0581,0.0581,0.0581,0.0608,0.0609,0.061,0.0611,0.0669,0.067,0.0671,0,0,0,0,0,0,0,0,0,0,0,0,0,0.0455,0.0457,0.0556,0.0557,0.0557,0.0581,0.0581,0.0581,0.0608,0.0609,0.061,0.0611,0.0669,0.067,0.0671,0,0,0,0,0,0,0,0,0,0,0,0,0,0.0488,0.0458,0.0556,0.0576,0.0579,0.0581,0.0581,0.0581,0.0608,0.0609,0.061,0.0611,0.0668,0.067,0.0671,0.0657,0,0,0.0675,0.0675,0,0,0,0,0,0,0,0,0.0486,0.0491,0.0573,0.0575,0.0578,0.0596,0.0567,0.061,0.0608,0.0593,0.0611,0.0612,0.0649,0.0652,0.0649,0.066,0.0662,0.0675,0.0676,0.0676,0.0677,0,0,0,0,0,0,0,0.0484,0.049,0.0562,0.0573,0.0576,0.0559,0.0565,0.0575,0.0612,0.0594,0.0597,0.0606,0.0651,0.0647,0.065,0.0663,0.0675,0.0676,0.0677,0.0677,0.0759,0.076,0,0,0,0,0,0,0.0492,0.0488,0.0561,0.0563,0.0538,0.056,0.0567,0.0586,0.0612,0.0617,0.0605,0.0607,0.0645,0.0649,0.0653,0.0705,0.0676,0.0678,0.0678,0.0758,0.0759,0.0761,0,0,0,0,0,0,0.049,0.0498,0.056,0.0528,0.0536,0.0562,0.0582,0.0586,0.0587,0.062,0.0626,0.0604,0.0646,0.0651,0.066,0.0706,0.0678,0.0679,0.0756,0.0758,0.076,0.0768,0,0,0,0,0,0,0.0487,0.0498,0.0502,0.053,0.0538,0.0559,0.0582,0.0586,0.0593,0.0596,0.0621,0.0627,0.0647,0.0658,0.0661,0.0707,0.068,0.0754,0.0757,0.076,0.0766,0.077,0.0773,0,0,0,0,0,0.0483,0.0491,0.0502,0.051,0.0548,0.0558,0.056,0.0579,0.0592,0.0585,0.0604,0.0626,0.0679,0.0658,0.0662,0.071,0.0753,0.0756,0.0759,0.0764,0.0769,0.0773,0,0,0,0,0,0,0.0448,0.0495,0.0508,0.053,0.0541,0.0564,0.056,0.0574,0.0582,0.0586,0.0616,0.0623,0.0657,0.0673,0.065,0.0744,0.0731,0.0735,0.0734,0.0739,0.0742,0.0789,0.0681,0,0,0,0,0,0.0443,0.0464,0.0495,0.051,0.0514,0.0534,0.0538,0.0552,0.0569,0.0573,0.0593,0.0629,0.0672,0.0693,0.0717,0.0747,0.0779,0.0791,0.0795,0.0798,0.0841,0.0938,0.0955,0.0771,0.0771,0.0771,0,0,0.044,0.0462,0.0479,0.0503,0.0512,0.0519,0.0538,0.0544,0.0564,0.0578,0.0598,0.0627,0.0678,0.0722,0.0743,0.0743,0.0849,0.0802,0.0804,0.0846,0.0943,0.0961,0.0977,0.0773,0.0773,0.0773,0,0,0.0431,0.0456,0.0464,0.047,0.0484,0.0501,0.0503,0.0523,0.0543,0.0556,0.0597,0.0663,0.0679,0.0762,0.0801,0.0843,0.0858,0.0839,0.0907,0.0999,0.1015,0.1031,0.1015,0.1029,0.0852,0.0852,0.0852,0,0.0416,0.0442,0.0463,0.0461,0.0477,0.0494,0.0503,0.052,0.0543,0.0595,0.0563,0.07,0.0722,0.0862,0.0872,0.086,0.0865,0.0879,0.1005,0.1022,0.1037,0.1018,0.1034,0.0853,0.0853,0.0853,0.0852,0,0.0417,0.0428,0.0428,0.0447,0.0459,0.0466,0.0501,0.0527,0.0552,0.0601,0.0715,0.0758,0.0867,0.0878,0.0878,0.1024,0.0969,0.0987,0.0993,0.1057,0.1031,0.1047,0.0854,0.0854,0.0853,0.0853,0,0,0.0411,0.0428,0.0427,0.0443,0.0457,0.0478,0.0519,0.0597,0.0685,0.071,0.0845,0.0918,0.0979,0.103,0.1068,0.1144,0.1212,0.1103,0.1108,0.1084,0.1331,0.124,0.1248,0.1241,0.1246,0.1249,0.1238,0,0.0403,0.0406,0.0426,0.0448,0.0457,0.0504,0.0561,0.064,0.0714,0.0839,0.0948,0.1061,0.1027,0.1094,0.1171,0.1221,0.1267,0.1208,0.1278,0.1279,0.1193,0.1272,0.1228,0.1213,0.1254,0.1256,0.1258,0,0.0402,0.0407,0.0419,0.0487,0.0503,0.0528,0.067,0.0725,0.0904,0.0973,0.1122,0.1195,0.1339,0.129,0.1416,0.1368,0.1355,0.1367,0.1368,0.1313,0.1225,0.1175,0.1241,0.1285,0.1283,0.1281,0.1279,0,0.0399,0.0418,0.0436,0.0445,0.0512,0.0564,0.0625,0.078,0.0882,0.1078,0.1178,0.1346,0.1439,0.149,0.1481,0.1459,0.158,0.156,0.1461,0.1448,0.1448,0.143,0.1582,0.1658,0.1658,0.1658,0.1658,0,0.0395,0.0414,0.0438,0.0446,0.0528,0.0575,0.0716,0.0811,0.0992,0.1151,0.1254,0.14,0.1496,0.1565,0.1539,0.1534,0.1623,0.15,0.1479,0.1435,0.1417,0.1485,0.15,0.1657,0.1657,0.1657,0.1657,0,0.0394,0.0398,0.0428,0.0487,0.0521,0.0584,0.0744,0.0874,0.1005,0.1216,0.1278,0.1461,0.1528,0.1558,0.1637,0.16,0.1615,0.1571,0.145,0.1417,0.1366,0.138,0.1495,0.155,0.1487,0.1485,0.1484,0,0.0396,0.04,0.045,0.0495,0.0523,0.0626,0.0734,0.0876,0.1014,0.1251,0.1364,0.1481,0.1572,0.1606,0.1565,0.1503,0.1549,0.143,0.142,0.1392,0.1395,0.1399,0.144,0.1377,0.1375,0.1373,0.1372,0,0.0403,0.0412,0.0439,0.053,0.0618,0.0735,0.0879,0.0974,0.1167,0.1308,0.149,0.1563,0.1574,0.1535,0.1435,0.1396,0.1465,0.1389,0.1456,0.1417,0.1348,0.1378,0.1272,0.1356,0.1357,0.1358,0.1359,0.136,0.0417,0.0445,0.0494,0.0592,0.0694,0.0842,0.0931,0.1083,0.1258,0.1445,0.1525,0.1587,0.1536,0.1398,0.1351,0.1278,0.1329,0.1282,0.1317,0.1334,0.1377,0.1175,0.1183,0.1184,0.1184,0.1185,0.1185,0,0.0452,0.0499,0.0578,0.0688,0.0802,0.0862,0.1042,0.1123,0.1281,0.1414,0.1518,0.1489,0.1412,0.1335,0.1235,0.1234,0.1267,0.1261,0.1313,0.1377,0.1284,0.1269,0.1183,0.1183,0.1183,0.1183,0.1183,0.1183,0.048,0.0554,0.0601,0.0772,0.0851,0.0987,0.1072,0.1174,0.1262,0.1353,0.1356,0.1371,0.1375,0.127,0.1264,0.1273,0.1398,0.132,0.1438,0.14,0.1407,0.1413,0.1408,0.1353,0.1354,0.1531,0.1533,0.1534]}],[{"header":{"parameterUnit":"m.s-1","parameterCategory":2,"la1":30.2991,"la2":30.254,"lo1":-89.0895,"lo2":-89.0444,"dy":0.0017,"dx":0.0017,"nx":28,"ny":28,"refTime":"2023-08-18T09:00:00:Z","depth":"2","parameterNumber":2,"parameterNumberName":"U-component_of_CURRENTS"},"data":[0,0,0,0,0,0,0,0,0,0,0,0,0,0,0,0,0,0,0,0,0,0,0,0,0,0,0,0,0,0,0,0,0,0,0,0,0,0,0,0,0,0,0,0,0,0,0,0,0,0,0,0,0,0,0,0,0,0,0.1448,0.1448,0,0.151,0.1511,0.1512,0.1502,0.1501,0.1499,0.1497,0.1622,0.1627,0.1632,0,0,0,0,0,0,0,0,0,0,0,0,0,0.1507,0.1505,0.1448,0.1448,0.1448,0.1509,0.1511,0.1512,0.1503,0.1501,0.1499,0.1497,0.162,0.1626,0.1632,0,0,0,0,0,0,0,0,0,0,0,0,0,0.1522,0.1505,0.1448,0.1446,0.1446,0.1509,0.1511,0.1513,0.1503,0.1501,0.1498,0.1496,0.1619,0.1626,0.1633,0.1727,0,0,0.1655,0.1658,0,0,0,0,0,0,0,0,0.1521,0.152,0.1446,0.1446,0.1446,0.149,0.1577,0.1585,0.1504,0.1488,0.1497,0.1495,0.1582,0.1592,0.1617,0.1733,0.1738,0.1656,0.166,0.1663,0.1665,0,0,0,0,0,0,0,0.152,0.1519,0.1479,0.1446,0.1446,0.1505,0.1504,0.158,0.1554,0.1489,0.1487,0.1485,0.1582,0.161,0.162,0.174,0.1655,0.1662,0.1666,0.1669,0.2005,0.2009,0,0,0,0,0,0,0.1492,0.1517,0.1477,0.148,0.1471,0.1505,0.1504,0.1484,0.1552,0.1557,0.1487,0.1484,0.1599,0.1611,0.1624,0.1785,0.1663,0.167,0.1674,0.2,0.2006,0.201,0,0,0,0,0,0,0.1493,0.1487,0.1474,0.1496,0.1497,0.1504,0.1484,0.1486,0.1532,0.1548,0.1555,0.153,0.1597,0.1614,0.1667,0.1788,0.1673,0.168,0.1995,0.2002,0.2008,0.2079,0,0,0,0,0,0,0.1494,0.1487,0.1487,0.1493,0.1495,0.1547,0.1486,0.1489,0.1529,0.1527,0.1589,0.1596,0.1597,0.1656,0.1674,0.1796,0.1686,0.1989,0.1998,0.2006,0.2071,0.2087,0.2101,0,0,0,0,0,0.1496,0.1497,0.1486,0.1482,0.1485,0.155,0.156,0.1561,0.1534,0.1588,0.1574,0.1595,0.1726,0.1663,0.1684,0.1811,0.1985,0.1995,0.2005,0.2064,0.2084,0.2101,0,0,0,0,0,0,0.152,0.1496,0.1484,0.1475,0.1526,0.1546,0.1586,0.1588,0.1626,0.1614,0.1617,0.1626,0.1709,0.1761,0.1691,0.1938,0.1878,0.1893,0.1916,0.1935,0.195,0.1959,0.1692,0,0,0,0,0,0.1524,0.1529,0.153,0.1544,0.156,0.1585,0.1614,0.162,0.1639,0.1655,0.1671,0.1718,0.1776,0.1844,0.1876,0.2026,0.2018,0.2137,0.2152,0.2165,0.219,0.2314,0.2342,0.2044,0.2044,0.2044,0,0,0.1554,0.153,0.1544,0.1553,0.1584,0.1581,0.16,0.1659,0.1659,0.1667,0.1682,0.174,0.1808,0.1922,0.1982,0.1988,0.222,0.2178,0.2187,0.2207,0.2327,0.2356,0.2381,0.2051,0.205,0.2049,0,0,0.1565,0.1583,0.1567,0.1604,0.1634,0.1638,0.1659,0.1691,0.1721,0.1764,0.1757,0.1881,0.1963,0.2054,0.2107,0.2252,0.2251,0.2306,0.2452,0.2571,0.2596,0.2618,0.2518,0.2531,0.2373,0.2373,0.2373,0,0.1588,0.1566,0.1593,0.1574,0.1603,0.1649,0.1652,0.1686,0.1727,0.1807,0.1772,0.197,0.2026,0.2216,0.2274,0.229,0.2286,0.2363,0.2588,0.2611,0.2632,0.2526,0.254,0.2377,0.2377,0.2376,0.2376,0,0.1566,0.1571,0.1588,0.155,0.1577,0.1642,0.1649,0.1715,0.1752,0.1816,0.2003,0.2087,0.2253,0.2315,0.2339,0.2581,0.249,0.2537,0.2527,0.2666,0.2544,0.2556,0.2384,0.2382,0.2381,0.238,0,0,0.1608,0.1572,0.1597,0.1595,0.16,0.1635,0.1653,0.176,0.1856,0.1949,0.2103,0.2279,0.2423,0.2497,0.26,0.2743,0.2852,0.2747,0.2751,0.2617,0.2974,0.2606,0.2582,0.2963,0.2969,0.2974,0.2778,0,0.1617,0.1573,0.1559,0.158,0.1574,0.1642,0.1676,0.1776,0.189,0.2045,0.2245,0.2395,0.2464,0.2596,0.2764,0.2827,0.2913,0.289,0.2887,0.2882,0.2521,0.2598,0.2487,0.2283,0.279,0.2792,0.2793,0,0.16,0.1593,0.1579,0.1629,0.1648,0.1669,0.1829,0.1887,0.2104,0.2209,0.2444,0.2545,0.278,0.2803,0.3001,0.2992,0.3011,0.3026,0.302,0.2678,0.2545,0.2259,0.2286,0.2813,0.2812,0.281,0.2809,0,0.161,0.1627,0.163,0.1648,0.1679,0.1758,0.183,0.1998,0.2107,0.235,0.244,0.2706,0.2821,0.2958,0.2976,0.3035,0.3077,0.3152,0.2797,0.2761,0.2663,0.2608,0.3282,0.3282,0.3283,0.3283,0.3284,0,0.1611,0.1643,0.1669,0.1691,0.1799,0.1822,0.1998,0.2107,0.2294,0.2438,0.2584,0.2682,0.289,0.2917,0.297,0.2845,0.3068,0.2796,0.2731,0.2661,0.2612,0.3112,0.3095,0.3276,0.3277,0.3279,0.328,0,0.1596,0.1596,0.1656,0.1755,0.1782,0.1905,0.2055,0.2194,0.2337,0.2506,0.2564,0.2688,0.2673,0.2699,0.2808,0.2751,0.2708,0.2601,0.236,0.2271,0.2299,0.2289,0.2221,0.2207,0.2195,0.2186,0.2178,0,0.1564,0.1569,0.1706,0.1783,0.1849,0.1998,0.2084,0.2227,0.233,0.2483,0.2535,0.2531,0.2471,0.2323,0.2267,0.2121,0.2329,0.1868,0.1995,0.2268,0.2214,0.2222,0.2227,0.1849,0.1839,0.183,0.1824,0,0.155,0.1624,0.1692,0.1849,0.1966,0.2068,0.2194,0.2223,0.2373,0.239,0.2368,0.2303,0.2136,0.1906,0.165,0.16,0.1885,0.1678,0.2149,0.2088,0.1891,0.1844,0.1869,0.175,0.1757,0.1763,0.1767,0.177,0.1595,0.1669,0.1778,0.1944,0.2054,0.2129,0.2129,0.2162,0.2172,0.2102,0.2132,0.1897,0.1829,0.1336,0.1217,0.1114,0.1284,0.1264,0.1305,0.1351,0.1297,0.1089,0.0774,0.0776,0.0777,0.0778,0.0779,0,0.1641,0.1718,0.1849,0.2008,0.2085,0.2178,0.2166,0.2058,0.1909,0.1823,0.1669,0.1346,0.1084,0.1007,0.0764,0.0649,0.0831,0.0582,0.0902,0.0969,0.1031,0.098,0.0362,0.0361,0.036,0.0359,0,0,0.168,0.1764,0.1825,0.1969,0.2083,0.205,0.1998,0.1791,0.1618,0.1309,0.111,0.1031,0.0979,0.0701,0.0615,0.0469,0.0741,0.0417,0.0752,0.1202,0.1264,0.1403,0.1389,0,0,0,0,0]},{"header":{"parameterUnit":"m.s-1","parameterCategory":2,"la1":30.2991,"la2":30.254,"lo1":-89.0895,"lo2":-89.0444,"dy":0.0017,"dx":0.0017,"nx":28,"ny":28,"refTime":"2023-08-18T09:00:00:Z","depth":"2","parameterNumber":3,"parameterNumberName":"V-component_of_CURRENTS"},"data":[0,0,0,0,0,0,0,0,0,0,0,0,0,0,0,0,0,0,0,0,0,0,0,0,0,0,0,0,0,0,0,0,0,0,0,0,0,0,0,0,0,0,0,0,0,0,0,0,0,0,0,0,0,0,0,0,0,0,0.0153,0.0153,0,0.0151,0.0151,0.015,0.0164,0.0165,0.0166,0.0166,0.0106,0.0104,0.0102,0,0,0,0,0,0,0,0,0,0,0,0,0,0.0112,0.0113,0.0153,0.0153,0.0154,0.0151,0.0151,0.015,0.0164,0.0165,0.0166,0.0166,0.0107,0.0105,0.0102,0,0,0,0,0,0,0,0,0,0,0,0,0,0.0119,0.0113,0.0153,0.0162,0.0163,0.0151,0.0151,0.015,0.0164,0.0165,0.0166,0.0167,0.0108,0.0105,0.0102,0.0062,0,0,0.0092,0.009,0,0,0,0,0,0,0,0,0.0119,0.0121,0.0161,0.0161,0.0163,0.0161,0.0114,0.0119,0.0164,0.0161,0.0166,0.0167,0.012,0.0116,0.0111,0.006,0.0057,0.0091,0.0089,0.0088,0.0087,0,0,0,0,0,0,0,0.0119,0.012,0.015,0.0161,0.0162,0.0147,0.0149,0.0115,0.0132,0.0161,0.0163,0.0166,0.012,0.0114,0.0109,0.0056,0.0091,0.0089,0.0087,0.0085,0.0046,0.0047,0,0,0,0,0,0,0.0126,0.012,0.015,0.015,0.0146,0.0147,0.0149,0.0158,0.0134,0.0132,0.0166,0.0167,0.0119,0.0113,0.0107,0.0109,0.0088,0.0085,0.0083,0.0046,0.0047,0.0048,0,0,0,0,0,0,0.0125,0.0129,0.015,0.0136,0.0139,0.0147,0.0157,0.0158,0.0161,0.0138,0.0135,0.017,0.012,0.0112,0.0055,0.0105,0.0083,0.008,0.0044,0.0046,0.0047,0.0081,0,0,0,0,0,0,0.0124,0.0129,0.013,0.0137,0.014,0.0129,0.0156,0.0157,0.0163,0.0165,0.014,0.0136,0.012,0.0059,0.0051,0.01,0.0078,0.0043,0.0045,0.0047,0.0079,0.0083,0.0087,0,0,0,0,0,0.0123,0.013,0.013,0.0133,0.0144,0.0128,0.0126,0.0134,0.0162,0.0145,0.0123,0.0137,0.0069,0.0054,0.0046,0.0096,0.0042,0.0045,0.0047,0.0077,0.0083,0.0087,0,0,0,0,0,0,0.0107,0.0132,0.0133,0.0145,0.0128,0.0131,0.0129,0.0137,0.0111,0.0117,0.0104,0.0095,0.0064,0.0069,0.0055,0.0094,0.0076,0.0076,0.0103,0.0108,0.0112,0.0204,0.0075,0,0,0,0,0,0.0105,0.0118,0.012,0.0122,0.0123,0.0126,0.0124,0.0124,0.0109,0.0102,0.007,0.0066,0.0066,0.0074,0.0036,0.0043,0.0085,0.0085,0.009,0.0093,0.0164,0.0297,0.0321,0.0055,0.0054,0.0054,0,0,0.0096,0.0113,0.0117,0.0119,0.0119,0.0094,0.0127,0.0121,0.0103,0.0095,0.0045,0.0041,0.0057,0.0053,0.0052,0.007,0.0161,0.0096,0.0099,0.0169,0.0302,0.0329,0.0353,0.0056,0.0056,0.0055,0,0,0.0078,0.0104,0.01,0.008,0.0076,0.0078,0.0078,0.0061,0.0064,0.0007,0.0027,0.0074,0.0001,0.0082,0.0109,0.0126,0.0148,0.0105,0.024,0.0365,0.039,0.0413,0.0375,0.0395,0.0149,0.0149,0.0149,0,0.0063,0.0057,0.0088,0.0062,0.0051,0.0072,0.0043,0.0041,-0.0004,0.0036,-0.0016,0.0053,0.0045,0.0185,0.0197,0.0148,0.0161,0.0212,0.0377,0.0401,0.0424,0.0381,0.0403,0.0151,0.015,0.015,0.015,0,0.0024,0.0008,0.0005,-0.0014,-0.0022,-0.0045,-0.0039,-0.0042,-0.0036,-0.0007,0.0074,0.0093,0.0195,0.019,0.0193,0.0388,0.0312,0.0331,0.0371,0.0454,0.0399,0.0421,0.0153,0.0153,0.0152,0.0152,0,0,0.0013,-0.0015,-0.0023,-0.0038,-0.0063,-0.0062,-0.0066,-0.002,0.0069,0.0045,0.0184,0.023,0.0338,0.0386,0.0442,0.0569,0.0682,0.0539,0.0544,0.0513,0.0848,0.0696,0.0703,0.0736,0.0743,0.0749,0.0698,0,-0.0036,-0.0088,-0.0084,-0.0131,-0.0155,-0.0123,-0.0098,-0.0042,0.0024,0.0147,0.0289,0.0403,0.0389,0.0491,0.0623,0.0678,0.0763,0.0688,0.0766,0.0767,0.0638,0.0736,0.0688,0.0637,0.072,0.0723,0.0726,0,-0.0093,-0.011,-0.0169,-0.0143,-0.0136,-0.0145,-0.002,0.0013,0.0211,0.0288,0.0488,0.0579,0.0796,0.0766,0.0951,0.0898,0.0901,0.0914,0.0913,0.081,0.0665,0.0594,0.0673,0.0762,0.076,0.0757,0.0754,0,-0.0125,-0.0162,-0.0196,-0.0215,-0.0188,-0.0152,-0.0089,0.0072,0.0195,0.0438,0.0576,0.0795,0.0954,0.103,0.1047,0.1024,0.1189,0.1153,0.0997,0.0977,0.0981,0.0952,0.1304,0.1304,0.1305,0.1305,0.1305,0,-0.019,-0.0212,-0.0205,-0.0234,-0.0178,-0.0138,0.0017,0.0112,0.0357,0.0573,0.0704,0.0909,0.105,0.1143,0.1112,0.1105,0.1239,0.1057,0.1014,0.0967,0.0939,0.1115,0.1094,0.1303,0.1303,0.1303,0.1304,0,-0.0233,-0.0258,-0.0268,-0.023,-0.021,-0.0142,0.0064,0.0227,0.0418,0.0711,0.0805,0.1045,0.114,0.1159,0.1263,0.1192,0.1178,0.1129,0.0971,0.0914,0.0838,0.0819,0.0967,0.0963,0.0959,0.0956,0.0953,0,-0.0257,-0.0288,-0.0259,-0.0214,-0.0195,-0.0075,0.0047,0.0241,0.0433,0.079,0.094,0.1114,0.1227,0.1225,0.1158,0.1034,0.1082,0.0887,0.0881,0.0891,0.0833,0.0819,0.0806,0.0827,0.0824,0.0821,0.0819,0,-0.0282,-0.0276,-0.0266,-0.0164,-0.0072,0.0066,0.0246,0.0383,0.0669,0.0875,0.1135,0.1228,0.1237,0.1139,0.0962,0.0881,0.0898,0.0819,0.0996,0.0903,0.0753,0.0696,0.069,0.0794,0.0796,0.0798,0.0799,0.08,-0.0266,-0.0237,-0.0192,-0.0064,0.0053,0.0233,0.0362,0.0557,0.0808,0.1097,0.1173,0.1245,0.1178,0.0905,0.0804,0.0683,0.071,0.0639,0.0653,0.0668,0.0646,0.0498,0.0475,0.0476,0.0476,0.0477,0.0477,0,-0.0232,-0.0176,-0.0065,0.0085,0.0262,0.0314,0.0531,0.0659,0.0898,0.1041,0.118,0.1043,0.0915,0.081,0.06,0.0485,0.054,0.0437,0.054,0.0562,0.0582,0.0562,0.0365,0.0366,0.0366,0.0366,0,0,-0.0206,-0.0118,-0.0028,0.0265,0.0399,0.0601,0.0721,0.0842,0.0926,0.1014,0.1009,0.1011,0.0877,0.0707,0.0582,0.0466,0.0544,0.044,0.0526,0.068,0.0703,0.0675,0.0663,0,0,0,0,0]}],[{"header":{"parameterUnit":"m.s-1","parameterCategory":2,"la1":30.2991,"la2":30.254,"lo1":-89.0895,"lo2":-89.0444,"dy":0.0017,"dx":0.0017,"nx":28,"ny":28,"refTime":"2023-08-18T09:00:00:Z","depth":"4","parameterNumber":2,"parameterNumberName":"U-component_of_CURRENTS"},"data":[0,0,0,0,0,0,0,0,0,0,0,0,0,0,0,0,0,0,0,0,0,0,0,0,0,0,0,0,0,0,0,0,0,0,0,0,0,0,0,0,0,0,0,0,0,0,0,0,0,0,0,0,0,0,0,0,0,0,0.045,0.0449,0,0.0305,0.0303,0.0301,0.0316,0.0319,0.0322,0.0325,0.0054,0.0045,0.0035,0,0,0,0,0,0,0,0,0,0,0,0,0,0.0536,0.0535,0.045,0.0449,0.0448,0.0305,0.0303,0.03,0.0316,0.0319,0.0323,0.0326,0.0058,0.0046,0.0034,0,0,0,0,0,0,0,0,0,0,0,0,0,0.0451,0.0535,0.0451,0.0442,0.044,0.0306,0.0303,0.03,0.0315,0.0319,0.0324,0.0327,0.0061,0.0047,0.0033,-0.014,0,0,-0.0012,-0.0018,0,0,0,0,0,0,0,0,0.0456,0.0448,0.0445,0.0442,0.044,0.0338,0.0234,0.0148,0.0314,0.0357,0.0325,0.0329,0.0137,0.0117,0.0075,-0.0153,-0.0165,-0.0013,-0.0022,-0.0028,-0.0033,0,0,0,0,0,0,0,0.0463,0.0453,0.0388,0.0443,0.044,0.0375,0.0369,0.0217,0.022,0.0354,0.0356,0.0346,0.0136,0.0089,0.0069,-0.0169,-0.0013,-0.0026,-0.0035,-0.0041,-0.0287,-0.0285,0,0,0,0,0,0,0.0496,0.0459,0.0392,0.0384,0.0464,0.0372,0.0364,0.0362,0.0224,0.021,0.0343,0.0348,0.0112,0.0086,0.0059,0.0014,-0.0028,-0.0042,-0.005,-0.0289,-0.0287,-0.0284,0,0,0,0,0,0,0.0499,0.0492,0.0398,0.0422,0.0406,0.0368,0.0364,0.0357,0.0329,0.0218,0.0201,0.0326,0.0114,0.008,-0.0068,-0.0002,-0.0049,-0.0062,-0.0292,-0.0289,-0.0286,-0.0185,0,0,0,0,0,0,0.0502,0.0494,0.0498,0.0425,0.0407,0.0305,0.036,0.0352,0.0318,0.0323,0.0195,0.0175,0.0115,-0.0045,-0.0082,-0.0023,-0.0073,-0.0295,-0.0291,-0.0287,-0.0191,-0.0178,-0.0168,0,0,0,0,0,0.0505,0.0485,0.0499,0.0491,0.0416,0.0302,0.0284,0.0267,0.0314,0.0265,0.0204,0.018,-0.0038,-0.0061,-0.0103,-0.0046,-0.0297,-0.0292,-0.0287,-0.0196,-0.0181,-0.0168,0,0,0,0,0,0,0.0511,0.0483,0.0497,0.0469,0.0392,0.0307,0.0275,0.0261,0.0174,0.0194,0.0115,0.0084,0.001,-0.0054,-0.0075,-0.009,-0.0137,-0.014,-0.0052,-0.0039,-0.0028,0.0026,-0.0086,0,0,0,0,0,0.0519,0.05,0.0446,0.0411,0.0393,0.0336,0.0295,0.0272,0.0192,0.0163,0.0075,0.0025,-0.0011,-0.0057,-0.0138,-0.0227,-0.0251,-0.0182,-0.017,-0.016,-0.0138,-0.0115,-0.0099,-0.0268,-0.0268,-0.0268,0,0,0.0498,0.0488,0.047,0.041,0.037,0.0293,0.032,0.0248,0.0203,0.0135,0.0038,0.0014,-0.003,-0.0079,-0.011,-0.0125,-0.0132,-0.0154,-0.0146,-0.0128,-0.0108,-0.0092,-0.0077,-0.0264,-0.0265,-0.0266,0,0,0.042,0.0457,0.0405,0.0344,0.0283,0.0257,0.0242,0.0152,0.0153,0.0035,0.0053,0.0056,-0.0092,-0.0058,-0.0058,-0.0048,-0.0082,-0.0034,0.006,0.0082,0.0096,0.0109,0.0063,0.0071,-0.0015,-0.0015,-0.0015,0,0.0412,0.0346,0.0356,0.0279,0.0249,0.0248,0.0171,0.0141,0.0009,0.0042,0.0019,-0.0003,-0.0057,0.0003,0.0053,-0.0019,-0.0033,0.0004,0.0098,0.0109,0.012,0.0071,0.0078,-0.0009,-0.001,-0.001,-0.0011,0,0.0273,0.0226,0.0189,0.0128,0.0088,0.0015,0.0004,-0.0014,0.0015,0.0016,0.0061,0.0019,0.0051,0.0068,0.0055,0.016,0.0112,0.0097,0.0061,0.0143,0.0085,0.0091,-0.0001,-0.0003,-0.0005,-0.0006,0,0,0.0239,0.0128,0.0109,0.0084,0.0019,-0.0021,-0.0035,-0.0018,0.0053,0.0005,0.0093,0.0114,0.0189,0.0199,0.0226,0.0267,0.0321,0.0239,0.0238,0.0191,0.0332,0.0304,0.0306,0.0331,0.0334,0.0336,0.0247,0,0.0137,-0.0004,-0.0025,-0.0132,-0.0185,-0.0139,-0.0132,-0.0097,-0.0031,0.0038,0.0144,0.02,0.0215,0.0281,0.0333,0.0317,0.0348,0.0344,0.0263,0.026,0.0224,0.0317,0.0344,0.025,0.0251,0.0252,0.0253,0,-0.0005,-0.0057,-0.0179,-0.018,-0.0182,-0.0213,-0.0087,-0.0085,0.0058,0.0128,0.0259,0.0311,0.0412,0.0404,0.0439,0.0439,0.0417,0.0391,0.0386,0.0337,0.0246,0.016,0.0262,0.0261,0.026,0.026,0.0259,0,-0.0044,-0.0154,-0.0218,-0.0252,-0.0266,-0.0217,-0.0158,-0.0032,0.0049,0.0216,0.0298,0.0408,0.0471,0.0479,0.0438,0.0456,0.0424,0.0422,0.0365,0.0358,0.0357,0.0346,0.0459,0.0459,0.0459,0.046,0.046,0,-0.0147,-0.0206,-0.0223,-0.0271,-0.0227,-0.0209,-0.009,-0.0003,0.015,0.0266,0.0375,0.0467,0.0504,0.049,0.0451,0.0408,0.0427,0.0404,0.0363,0.0394,0.0388,0.0357,0.0347,0.0456,0.0457,0.0458,0.0458,0,-0.0223,-0.0272,-0.0327,-0.0303,-0.0271,-0.0219,-0.0059,0.0034,0.0182,0.0331,0.0386,0.0509,0.0528,0.0487,0.0459,0.0418,0.0362,0.0333,0.0317,0.027,0.0275,0.027,0.0302,0.0301,0.03,0.03,0.0299,0,-0.0285,-0.0334,-0.033,-0.0313,-0.0296,-0.0194,-0.0111,0.0046,0.0146,0.0349,0.0405,0.0487,0.0552,0.0471,0.0437,0.0334,0.0333,0.0262,0.036,0.0317,0.0273,0.027,0.0267,0.0298,0.0297,0.0297,0.0297,0,-0.0349,-0.0348,-0.0366,-0.0342,-0.0281,-0.0201,-0.0067,-0.0001,0.0185,0.0306,0.0456,0.0498,0.0519,0.0496,0.0398,0.033,0.0293,0.0253,0.0257,0.0349,0.0311,0.0268,0.0266,0.0294,0.0294,0.0295,0.0295,0,-0.0355,-0.0362,-0.0376,-0.0338,-0.0286,-0.0221,-0.0146,-0.0005,0.0114,0.0343,0.0376,0.0469,0.0543,0.0491,0.0394,0.0332,0.0362,0.0326,0.0327,0.0329,0.0379,0.0337,0.0321,0,0,0,0,0,-0.0338,-0.0349,-0.0349,-0.032,-0.0282,-0.0242,-0.0126,-0.0049,0.0118,0.0223,0.0322,0.0363,0.0382,0.0404,0.0346,0.0345,0.029,0.0268,0.0231,0.0277,0.028,0.0335,0,0,0,0,0,0,-0.0333,-0.0348,-0.0359,-0.0319,-0.029,-0.0233,-0.0172,-0.0076,0.0009,0.0179,0.0193,0.0325,0.0322,0.0419,0.0343,0.0336,0.0295,0.0314,0.0312,0.0275,0.0278,0.0281,0.0339,0,0,0,0,0]},{"header":{"parameterUnit":"m.s-1","parameterCategory":2,"la1":30.2991,"la2":30.254,"lo1":-89.0895,"lo2":-89.0444,"dy":0.0017,"dx":0.0017,"nx":28,"ny":28,"refTime":"2023-08-18T09:00:00:Z","depth":"4","parameterNumber":3,"parameterNumberName":"V-component_of_CURRENTS"},"data":[0,0,0,0,0,0,0,0,0,0,0,0,0,0,0,0,0,0,0,0,0,0,0,0,0,0,0,0,0,0,0,0,0,0,0,0,0,0,0,0,0,0,0,0,0,0,0,0,0,0,0,0,0,0,0,0,0,0,0.0038,0.0039,0,0.0135,0.0137,0.0138,0.014,0.0138,0.0136,0.0135,0.0242,0.0246,0.025,0,0,0,0,0,0,0,0,0,0,0,0,0,-0.0046,-0.0045,0.0038,0.0039,0.0039,0.0135,0.0137,0.0139,0.014,0.0138,0.0136,0.0134,0.024,0.0245,0.0251,0,0,0,0,0,0,0,0,0,0,0,0,0,0.0019,-0.0044,0.0038,0.0048,0.0049,0.0135,0.0137,0.0139,0.014,0.0138,0.0135,0.0133,0.0238,0.0245,0.0251,0.0343,0,0,0.0272,0.0275,0,0,0,0,0,0,0,0,0.0016,0.0023,0.0046,0.0047,0.0049,0.0118,0.0146,0.0206,0.0141,0.0111,0.0135,0.0132,0.02,0.021,0.0241,0.0348,0.0353,0.0272,0.0276,0.0279,0.0281,0,0,0,0,0,0,0,0.0011,0.002,0.0082,0.0046,0.0049,0.0082,0.0088,0.0159,0.0173,0.0114,0.0113,0.0116,0.0201,0.0234,0.0243,0.0355,0.0272,0.0278,0.0282,0.0285,0.0445,0.0445,0,0,0,0,0,0,-0.0013,0.0015,0.0078,0.0084,0.002,0.0084,0.0092,0.0103,0.0172,0.0178,0.0118,0.0116,0.0224,0.0235,0.0247,0.0313,0.0279,0.0285,0.0289,0.0444,0.0445,0.0445,0,0,0,0,0,0,-0.0015,-0.0008,0.0074,0.0047,0.0059,0.0087,0.0101,0.0106,0.0132,0.0174,0.0181,0.0136,0.0223,0.0237,0.0312,0.0319,0.0288,0.0294,0.0444,0.0445,0.0445,0.0476,0,0,0,0,0,0,-0.0018,-0.0009,-0.0005,0.0046,0.0059,0.013,0.0103,0.0109,0.0136,0.0134,0.0193,0.02,0.0222,0.0302,0.0319,0.0327,0.03,0.0444,0.0444,0.0445,0.0475,0.0478,0.048,0,0,0,0,0,-0.0021,0.0002,-0.0005,0.0002,0.0063,0.0131,0.0143,0.0157,0.0139,0.0168,0.0201,0.0198,0.0314,0.031,0.0329,0.0339,0.0444,0.0444,0.0445,0.0474,0.0477,0.048,0,0,0,0,0,0,-0.0027,0.0006,-0.0002,0.003,0.0073,0.0129,0.0155,0.0164,0.0217,0.0214,0.0239,0.0252,0.0312,0.0326,0.0319,0.0379,0.0365,0.0369,0.038,0.0384,0.0386,0.0368,0.0305,0,0,0,0,0,-0.0029,-0.0007,0.0032,0.0059,0.0078,0.0116,0.0143,0.0162,0.021,0.0229,0.0269,0.0299,0.0335,0.0358,0.0404,0.0466,0.0442,0.0469,0.0472,0.0474,0.0469,0.0405,0.0401,0.0447,0.0447,0.0447,0,0,-0.0022,-0.0004,0.0009,0.0058,0.009,0.0151,0.0129,0.0183,0.0231,0.0238,0.0316,0.0331,0.0355,0.0411,0.0435,0.0422,0.0461,0.0475,0.0477,0.047,0.0405,0.0401,0.0397,0.0447,0.0447,0.0447,0,0,0.0016,0.0018,0.0053,0.0091,0.0139,0.0179,0.0192,0.0257,0.0275,0.0367,0.0351,0.0357,0.0463,0.0441,0.0451,0.0495,0.0483,0.0512,0.0512,0.0452,0.0447,0.0442,0.0456,0.0452,0.0504,0.0504,0.0504,0,0.0017,0.0068,0.0079,0.0126,0.0159,0.0191,0.0251,0.0296,0.0377,0.0377,0.0397,0.0448,0.0465,0.0466,0.0476,0.0499,0.0493,0.0503,0.0453,0.0448,0.0442,0.0457,0.0453,0.0506,0.0505,0.0505,0.0505,0,0.0084,0.0127,0.0156,0.0222,0.0264,0.0326,0.0376,0.0415,0.0446,0.0466,0.0488,0.0507,0.0513,0.0513,0.0527,0.0486,0.0508,0.047,0.0443,0.0439,0.0457,0.0451,0.0508,0.0507,0.0507,0.0506,0,0,0.0085,0.0183,0.0193,0.0228,0.0316,0.0358,0.0427,0.0477,0.0483,0.0542,0.0536,0.0569,0.0536,0.0541,0.0521,0.0469,0.0444,0.0464,0.046,0.0478,0.0372,0.0323,0.0313,0.0398,0.0396,0.0395,0.0418,0,0.0136,0.0229,0.0272,0.0373,0.0426,0.0458,0.0515,0.0549,0.0573,0.0582,0.0546,0.0562,0.0561,0.0554,0.0502,0.0437,0.0424,0.0445,0.0374,0.0374,0.0326,0.0301,0.0389,0.0414,0.0413,0.0412,0.0411,0,0.0195,0.0243,0.0344,0.0422,0.0444,0.0524,0.0562,0.0615,0.0613,0.0616,0.0592,0.0572,0.0512,0.0514,0.0417,0.0435,0.0426,0.0386,0.0385,0.0315,0.031,0.0405,0.0401,0.0401,0.0402,0.0403,0.0403,0,0.0186,0.0296,0.0371,0.0404,0.0502,0.0547,0.0609,0.0629,0.0643,0.0635,0.0625,0.0558,0.0526,0.0465,0.0388,0.0409,0.0278,0.0288,0.0256,0.0257,0.0284,0.0287,0.025,0.025,0.025,0.025,0.025,0,0.0228,0.0286,0.0384,0.0424,0.0509,0.0566,0.0642,0.0665,0.0677,0.067,0.0649,0.0607,0.0507,0.0419,0.0377,0.0277,0.027,0.0253,0.0234,0.0307,0.0312,0.0283,0.0287,0.0251,0.0251,0.0251,0.025,0,0.0225,0.0294,0.0367,0.0467,0.0524,0.0578,0.0704,0.0718,0.074,0.0725,0.0721,0.063,0.0501,0.0406,0.028,0.0256,0.0167,0.0157,0.0273,0.0263,0.0218,0.0224,0.0141,0.0139,0.0137,0.0135,0.0134,0,0.024,0.0281,0.0388,0.0451,0.0525,0.0635,0.0702,0.0759,0.0764,0.0724,0.0691,0.0578,0.0508,0.0308,0.0206,0.0111,0.0112,0.0121,0.0151,0.0204,0.0195,0.0204,0.0211,0.0131,0.0131,0.013,0.013,0,0.0237,0.0268,0.0315,0.0452,0.0551,0.0638,0.0742,0.0719,0.0736,0.0764,0.0662,0.0567,0.0418,0.0273,0.0185,0.0123,0.0119,0.0103,0.0108,0.0137,0.0192,0.0187,0.0196,0.0124,0.0124,0.0125,0.0125,0,0.0219,0.0237,0.0315,0.0433,0.0547,0.06,0.0653,0.0676,0.0686,0.0641,0.06,0.0475,0.0422,0.0279,0.0183,0.0101,0.012,0.0157,0.016,0.0166,0.0143,0.0216,0.0128,0,0,0,0,0,0.0206,0.023,0.0313,0.0413,0.0517,0.0602,0.0655,0.0677,0.0673,0.0607,0.0613,0.0485,0.0333,0.0259,0.0168,0.0136,0.0081,0.0032,0.0119,0.0089,0.0096,0.0056,0,0,0,0,0,0,0.0195,0.0251,0.0282,0.0384,0.0458,0.0562,0.0581,0.0574,0.0551,0.0546,0.0454,0.0506,0.0335,0.0384,0.0179,0.0154,0.0209,-0.0013,-0.0014,0.0085,0.0092,0.0097,0.0058,0,0,0,0,0]}]]